Location: Home
(42.5358°N, 72.7383°W)
Time: 03:20:44
(UTC-04:00)

deb Agena D - Visible Passes

Search period start: 26 June 2022 00:00
Search period end: 06 July 2022 00:00
Orbit: 999 x 1024 km, 100.1° (Epoch: 25 June)

Date Brightness Start Highest point End Pass type
(mag) Time Alt. Az. Time Alt. Az. Time Alt. Az.
26 Jun ? 00:37:03 36° SW 00:38:44 43° W 00:44:45 10° NNW visible
26 Jun ? 21:45:49 10° ENE 21:47:34 11° NE 21:49:18 10° NNE visible
26 Jun ? 23:27:29 35° SE 23:30:08 60° ENE 23:36:22 10° N visible
27 Jun ? 01:12:54 21° WSW 01:14:21 23° W 01:19:17 10° NW visible
27 Jun ? 22:17:55 10° E 22:22:15 20° ENE 22:26:39 10° NNE visible
28 Jun ? 00:03:20 46° S 00:05:23 77° WSW 00:11:46 10° NNW visible
28 Jun ? 01:48:45 11° W 01:50:11 11° W 01:52:08 10° WNW visible
28 Jun ? 22:53:46 21° ESE 22:57:08 35° ENE 23:02:46 10° N visible
29 Jun ? 00:39:12 36° SW 00:40:49 42° W 00:46:50 10° NNW visible
29 Jun ? 21:47:41 10° ENE 21:49:37 12° NE 21:51:34 10° NNE visible
29 Jun ? 23:29:38 36° SE 23:32:12 62° ENE 23:38:28 10° N visible
30 Jun ? 01:15:03 21° WSW 01:16:27 23° W 01:21:19 10° NW visible
30 Jun ? 22:20:04 11° E 22:24:18 21° ENE 22:28:47 10° NNE visible
01 Jul ? 00:05:29 47° S 00:07:28 76° WSW 00:13:51 10° NNW visible
01 Jul ? 01:50:54 10° W 01:52:17 11° W 01:53:59 10° WNW visible
01 Jul ? 22:55:56 22° ESE 22:59:12 36° ENE 23:04:53 10° N visible
02 Jul ? 00:41:21 35° SW 00:42:55 41° W 00:48:53 10° NNW visible
02 Jul ? 21:49:33 10° ENE 21:51:40 12° NE 21:53:47 10° NNE visible
02 Jul ? 23:31:47 37° SE 23:34:16 63° ENE 23:40:33 10° N visible
03 Jul ? 01:17:13 21° WSW 01:18:33 22° W 01:23:21 10° NW visible
03 Jul ? 22:22:14 11° E 22:26:22 21° ENE 22:30:54 10° NNE visible
04 Jul ? 00:07:39 48° S 00:09:33 74° WSW 00:15:56 10° NNW visible
04 Jul ? 01:53:04 10° W 01:54:24 11° W 01:55:45 10° WNW visible
04 Jul ? 22:58:06 23° ESE 23:01:16 36° ENE 23:06:58 10° N visible
05 Jul ? 00:43:31 35° SW 00:45:00 40° W 00:50:57 10° NNW visible
05 Jul ? 21:51:25 10° ENE 21:53:43 12° NE 21:56:00 10° NNE visible
05 Jul ? 23:33:58 39° SE 23:36:21 65° ENE 23:42:38 10° N visible
